Zurück zum Katalog

FALCON 9 R/B

AktivHEO
NORAD 54260·ROCKET BODY·🇺🇸 United States

Gestartet Nov 23, 2022 von Cape Canaveral Space Force Station

Loading…

Nächste Überflüge (nächste 24 Stunden)

TLE

AktuellSource: Space-Track

Epoche: Sep 10, 2026, 11:38 UTC

1 54260U 22157B   26253.48534256  .00001919  00000-0  16998-2 0  9994
2 54260  21.7294 317.3103 7744187  56.2531 354.5181  1.71698204 20841

Verfolge FALCON 9 R/B in Echtzeit mit AllMySat

Download on the App Store